M I D A S
Marine Information and Data Acquisition System
Tripno 989 of the Zeeleeuw from 2005-11-28 07:35:38 to 2005-11-28 14:38:53
Back to CruiseResearch ActivitiesStationsMapUnderway DataData graphs

EquipmentUnitsComments
TimeDGPSUTC
LatitudeDGPSDM.mWGS84
LongitudeDGPSDM.mWGS84
SpeedMeteo Stationm/sRelative wind speed
DirectionMeteo StationdegRelative wind direction
TemperatureMeteo Stationdeg CelciusAir temperature
PressureMeteo StationPaAtmospheric pressure
HumidityMeteo Station%Relative humidity
Missing or incorrect values are displayed as -999
Metereological data collected by the RV Zeeleeuw from 2005-11-28 07:21:17 to 2005-11-28 14:53:13
Time Latitude Longitude Speed Direction Temperature Pressure Humidity
2005-11-28 07:22 51°13.581 2°56.136 -999 188 5.9 99570 85
2005-11-28 07:23 51°13.581 2°56.136 -999 177 6 99570 83
2005-11-28 07:24 51°13.582 2°56.137 -999 159 6 99570 82
2005-11-28 07:25 51°13.582 2°56.136 -999 164 6 99570 80
2005-11-28 07:26 51°13.582 2°56.136 -999 186 6 99570 79
2005-11-28 07:27 51°13.581 2°56.137 -999 177 6 99570 78
2005-11-28 07:28 51°13.581 2°56.138 -999 169 6 99570 78
2005-11-28 07:29 51°13.58 2°56.137 -999 186 6.1 99570 78
2005-11-28 07:30 51°13.58 2°56.136 -999 172 6.1 99580 77
2005-11-28 07:31 51°13.58 2°56.136 -999 160 6.1 99570 77
2005-11-28 07:32 51°13.581 2°56.137 -999 182 6.1 99580 77
2005-11-28 07:33 51°13.581 2°56.137 -999 156 6.1 99580 77
2005-11-28 07:34 51°13.58 2°56.136 -999 163 6.1 99580 77
2005-11-28 07:35 51°13.58 2°56.136 -999 179 6.1 99580 77
2005-11-28 07:36 51°13.58 2°56.137 -999 185 6.2 99580 77
2005-11-28 07:37 51°13.584 2°56.116 -999 180 6.2 99580 77
2005-11-28 07:38 51°13.613 2°56.02 -999 188 6.3 99580 77
2005-11-28 07:39 51°13.656 2°55.907 -999 171 6.4 99580 77
2005-11-28 07:40 51°13.688 2°55.794 -999 215 6.7 99590 78
2005-11-28 07:41 51°13.696 2°55.744 -999 301 6.5 99580 76
2005-11-28 07:42 51°13.743 2°55.728 -999 5 6.5 99570 76
2005-11-28 07:43 51°13.855 2°55.617 -999 352 6.4 99580 76
2005-11-28 07:44 51°14.004 2°55.51 -999 356 6.3 99570 75
2005-11-28 07:45 51°14.155 2°55.399 -999 334 6.3 99570 76
2005-11-28 07:46 51°14.28 2°55.23 -999 354 6.4 99560 77
2005-11-28 07:47 51°14.398 2°55.013 -999 351 6.4 99550 77
2005-11-28 07:48 51°14.55 2°54.841 -999 342 6.4 99570 77
2005-11-28 07:49 51°14.73 2°54.721 -999 338 6.4 99560 77
2005-11-28 07:50 51°14.917 2°54.595 -999 348 6.4 99570 77
2005-11-28 07:51 51°15.105 2°54.465 -999 353 6.4 99570 76
2005-11-28 07:52 51°15.277 2°54.293 -999 351 6.5 99570 76
2005-11-28 07:53 51°15.445 2°54.113 -999 351 6.4 99530 76
2005-11-28 07:54 51°15.614 2°53.936 -999 354 6.4 99530 77
2005-11-28 07:55 51°15.783 2°53.763 -999 348 6.4 99510 75
2005-11-28 07:56 51°15.953 2°53.587 -999 343 6.5 99530 76
2005-11-28 07:57 51°16.122 2°53.414 -999 347 6.5 99520 76
2005-11-28 07:58 51°16.3 2°53.266 -999 344 6.5 99520 77
2005-11-28 07:59 51°16.478 2°53.118 -999 342 6.5 99530 76
2005-11-28 08:00 51°16.66 2°52.977 -999 343 6.5 99520 76
2005-11-28 08:01 51°16.839 2°52.835 -999 343 6.5 99520 76
2005-11-28 08:02 51°17.016 2°52.699 -999 337 6.5 99520 76
2005-11-28 08:03 51°17.193 2°52.553 -999 348 6.5 99530 76
2005-11-28 08:04 51°17.363 2°52.384 -999 349 6.5 99520 77
2005-11-28 08:05 51°17.506 2°52.167 -999 351 6.5 99530 77
2005-11-28 08:06 51°17.606 2°51.897 -999 6 6.5 99530 77
2005-11-28 08:07 51°17.698 2°51.623 -999 9 6.6 99540 79
2005-11-28 08:08 51°17.784 2°51.342 -999 4 6.4 99540 76
2005-11-28 08:09 51°17.872 2°51.061 -999 5 6.4 99540 75
2005-11-28 08:10 51°17.957 2°50.781 -999 15 6.5 99530 76
2005-11-28 08:11 51°18.044 2°50.501 -999 15 6.5 99520 75
2005-11-28 08:12 51°18.131 2°50.219 -999 7 6.5 99540 74
2005-11-28 08:13 51°18.219 2°49.937 -999 15 6.5 99540 74
2005-11-28 08:14 51°18.302 2°49.646 -999 7 6.5 99540 74
2005-11-28 08:15 51°18.38 2°49.364 -999 9 6.5 99530 73
2005-11-28 08:16 51°18.459 2°49.083 -999 14 6.6 99550 74
2005-11-28 08:17 51°18.538 2°48.803 -999 12 6.6 99550 75
2005-11-28 08:18 51°18.616 2°48.527 -999 11 6.7 99550 74
2005-11-28 08:19 51°18.697 2°48.246 -999 12 6.6 99560 74
2005-11-28 08:20 51°18.777 2°47.96 -999 10 6.5 99560 73
2005-11-28 08:21 51°18.856 2°47.676 -999 12 6.6 99550 73
2005-11-28 08:22 51°18.935 2°47.388 -999 13 6.6 99560 73
2005-11-28 08:23 51°19.011 2°47.094 -999 13 6.6 99560 74
2005-11-28 08:24 51°19.094 2°46.802 -999 8 6.5 99550 74
2005-11-28 08:25 51°19.176 2°46.509 -999 8 6.5 99560 74
2005-11-28 08:26 51°19.259 2°46.223 -999 3 6.5 99560 74
2005-11-28 08:27 51°19.337 2°45.934 -999 9 6.5 99550 73
2005-11-28 08:28 51°19.414 2°45.645 -999 10 6.6 99560 74
2005-11-28 08:29 51°19.488 2°45.361 -999 10 6.5 99560 73
2005-11-28 08:30 51°19.563 2°45.076 -999 9 6.5 99560 74
2005-11-28 08:31 51°19.64 2°44.788 -999 9 6.6 99560 76
2005-11-28 08:32 51°19.717 2°44.501 -999 7 6.5 99560 75
2005-11-28 08:33 51°19.794 2°44.21 -999 10 6.5 99560 76
2005-11-28 08:34 51°19.875 2°43.918 -999 15 6.6 99560 77
2005-11-28 08:35 51°19.953 2°43.629 -999 24 6.6 99550 77
2005-11-28 08:36 51°20.034 2°43.338 -999 16 6.5 99550 76
2005-11-28 08:37 51°20.113 2°43.051 -999 24 6.5 99550 74
2005-11-28 08:38 51°20.191 2°42.766 -999 18 6.6 99550 74
2005-11-28 08:39 51°20.27 2°42.482 -999 15 6.6 99540 74
2005-11-28 08:40 51°20.35 2°42.198 -999 13 6.6 99560 75
2005-11-28 08:41 51°20.421 2°41.913 -999 16 6.6 99560 74
2005-11-28 08:42 51°20.469 2°41.617 -999 21 6.6 99560 75
2005-11-28 08:43 51°20.52 2°41.318 -999 22 6.6 99550 75
2005-11-28 08:44 51°20.553 2°41.012 -999 21 6.6 99540 75
2005-11-28 08:45 51°20.579 2°40.703 -999 22 6.7 99550 77
2005-11-28 08:46 51°20.604 2°40.395 -999 19 6.6 99540 77
2005-11-28 08:47 51°20.627 2°40.087 -999 19 6.7 99560 77
2005-11-28 08:48 51°20.653 2°39.774 -999 20 6.7 99550 78
2005-11-28 08:49 51°20.672 2°39.464 -999 26 6.7 99570 79
2005-11-28 08:50 51°20.663 2°39.154 -999 30 6.6 99560 78
2005-11-28 08:51 51°20.655 2°38.844 -999 22 6.6 99580 78
2005-11-28 08:52 51°20.648 2°38.532 -999 24 6.6 99560 78
2005-11-28 08:53 51°20.653 2°38.223 -999 26 6.5 99570 77
2005-11-28 08:54 51°20.662 2°37.916 -999 23 6.5 99600 77
2005-11-28 08:55 51°20.672 2°37.61 -999 24 6.5 99590 78
2005-11-28 08:56 51°20.682 2°37.304 -999 15 6.6 99590 78
2005-11-28 08:57 51°20.702 2°36.998 -999 12 6.5 99580 78
2005-11-28 08:58 51°20.75 2°36.702 -999 18 6.5 99590 78
2005-11-28 08:59 51°20.802 2°36.405 -999 19 6.5 99610 78
2005-11-28 09:00 51°20.854 2°36.108 -999 15 6.3 99600 76
2005-11-28 09:01 51°20.913 2°35.813 -999 18 6.3 99610 76
2005-11-28 09:02 51°20.971 2°35.514 -999 15 6.4 99590 76
2005-11-28 09:03 51°21.032 2°35.217 -999 13 6.5 99610 78
2005-11-28 09:04 51°21.082 2°34.922 -999 17 6.4 99590 77
2005-11-28 09:05 51°21.14 2°34.629 -999 11 6.4 99590 77
2005-11-28 09:06 51°21.263 2°34.388 -999 356 6.4 99590 77
2005-11-28 09:07 51°21.451 2°34.258 -999 340 6.4 99560 77
2005-11-28 09:08 51°21.651 2°34.16 -999 347 6.5 99570 77
2005-11-28 09:09 51°21.849 2°34.054 -999 339 6.6 99570 77
2005-11-28 09:10 51°22.048 2°33.945 -999 342 6.5 99560 76
2005-11-28 09:11 51°22.245 2°33.836 -999 339 6.4 99570 76
2005-11-28 09:12 51°22.437 2°33.717 -999 349 6.5 99550 77
2005-11-28 09:13 51°22.598 2°33.529 -999 5 6.6 99570 78
2005-11-28 09:14 51°22.725 2°33.291 -999 18 6.5 99590 78
2005-11-28 09:15 51°22.81 2°33.011 -999 23 6.3 99590 79
2005-11-28 09:16 51°22.828 2°32.711 -999 24 6.2 99600 80
2005-11-28 09:17 51°22.825 2°32.41 -999 28 6.1 99590 80
2005-11-28 09:18 51°22.811 2°32.109 -999 27 6.2 99590 81
2005-11-28 09:19 51°22.801 2°31.806 -999 27 6.2 99590 81
2005-11-28 09:20 51°22.789 2°31.508 -999 32 6.2 99590 80
2005-11-28 09:21 51°22.778 2°31.208 -999 22 6.2 99580 80
2005-11-28 09:22 51°22.768 2°30.907 -999 22 6.2 99590 79
2005-11-28 09:23 51°22.752 2°30.609 -999 28 6.3 99580 79
2005-11-28 09:24 51°22.735 2°30.31 -999 28 6.2 99580 79
2005-11-28 09:25 51°22.719 2°30.008 -999 32 6.3 99580 79
2005-11-28 09:26 51°22.702 2°29.709 -999 25 6.3 99580 79
2005-11-28 09:27 51°22.685 2°29.409 -999 21 6.3 99570 79
2005-11-28 09:28 51°22.667 2°29.109 -999 28 6.4 99580 79
2005-11-28 09:29 51°22.659 2°28.806 -999 32 6.4 99580 79
2005-11-28 09:30 51°22.653 2°28.503 -999 30 6.4 99590 80
2005-11-28 09:31 51°22.645 2°28.202 -999 33 6.3 99590 79
2005-11-28 09:32 51°22.637 2°27.901 -999 33 6.2 99610 77
2005-11-28 09:33 51°22.639 2°27.598 -999 28 6.3 99590 78
2005-11-28 09:34 51°22.642 2°27.296 -999 27 6.3 99600 77
2005-11-28 09:35 51°22.645 2°26.995 -999 23 6.3 99580 78
2005-11-28 09:36 51°22.649 2°26.694 -999 32 6.3 99590 78
2005-11-28 09:37 51°22.65 2°26.396 -999 34 6.3 99590 78
2005-11-28 09:38 51°22.651 2°26.094 -999 36 6.4 99590 78
2005-11-28 09:39 51°22.669 2°25.799 -999 17 6.4 99600 78
2005-11-28 09:40 51°22.806 2°25.586 -999 351 6.4 99600 78
2005-11-28 09:41 51°23.016 2°25.537 -999 343 6.4 99610 78
2005-11-28 09:42 51°23.235 2°25.536 -999 341 6.3 99610 78
2005-11-28 09:43 51°23.453 2°25.544 -999 328 6.3 99600 78
2005-11-28 09:44 51°23.674 2°25.557 -999 327 6.2 99610 77
2005-11-28 09:45 51°23.896 2°25.57 -999 327 6.3 99590 78
2005-11-28 09:46 51°24.12 2°25.583 -999 332 6.2 99620 78
2005-11-28 09:47 51°24.343 2°25.599 -999 334 6.2 99600 78
2005-11-28 09:48 51°24.567 2°25.615 -999 336 6.1 99600 77
2005-11-28 09:49 51°24.791 2°25.618 -999 340 6.1 99610 77
2005-11-28 09:50 51°25.016 2°25.623 -999 339 6.2 99610 78
2005-11-28 09:51 51°25.242 2°25.626 -999 332 6.2 99630 78
2005-11-28 09:52 51°25.466 2°25.629 -999 333 6.2 99610 78
2005-11-28 09:53 51°25.685 2°25.629 -999 339 6.2 99620 78
2005-11-28 09:54 51°25.906 2°25.635 -999 336 6.2 99600 79
2005-11-28 09:55 51°26.132 2°25.639 -999 339 6.2 99620 78
2005-11-28 09:56 51°26.348 2°25.649 -999 340 6.2 99620 79
2005-11-28 09:57 51°26.58 2°25.651 -999 336 6 99620 78
2005-11-28 09:58 51°26.802 2°25.655 -999 340 6.1 99620 78
2005-11-28 09:59 51°27.02 2°25.656 -999 343 6.1 99620 78
2005-11-28 10:00 51°27.249 2°25.66 -999 335 6.1 99620 77
2005-11-28 10:01 51°27.466 2°25.664 -999 332 6.3 99610 79
2005-11-28 10:02 51°27.697 2°25.669 -999 337 6.2 99620 79
2005-11-28 10:03 51°27.916 2°25.675 -999 339 6.2 99610 79
2005-11-28 10:04 51°28.14 2°25.677 -999 344 6.2 99610 79
2005-11-28 10:05 51°28.372 2°25.681 -999 350 6.3 99620 81
2005-11-28 10:06 51°28.588 2°25.685 -999 340 6.2 99620 80
2005-11-28 10:07 51°28.811 2°25.685 -999 338 6.1 99610 79
2005-11-28 10:08 51°29.034 2°25.686 -999 332 6.1 99620 79
2005-11-28 10:09 51°29.254 2°25.685 -999 343 6.2 99610 80
2005-11-28 10:10 51°29.447 2°25.556 -999 353 6.3 99620 81
2005-11-28 10:11 51°29.64 2°25.387 -999 359 6.2 99620 80
2005-11-28 10:12 51°29.809 2°25.19 -999 2 6.2 99620 81
2005-11-28 10:13 51°29.971 2°24.993 -999 1 6.1 99620 80
2005-11-28 10:14 51°30.159 2°24.834 -999 337 6.1 99640 81
2005-11-28 10:15 51°30.369 2°24.926 -999 322 6 99630 81
2005-11-28 10:16 51°30.581 2°25.074 -999 319 5.9 99610 81
2005-11-28 10:17 51°30.79 2°25.242 -999 327 6 99610 81
2005-11-28 10:18 51°30.998 2°25.412 -999 322 6 99610 81
2005-11-28 10:19 51°31.206 2°25.581 -999 327 6 99610 81
2005-11-28 10:20 51°31.411 2°25.752 -999 327 6.1 99600 82
2005-11-28 10:21 51°31.623 2°25.936 -999 326 6.1 99610 82
2005-11-28 10:22 51°31.821 2°26.118 -999 327 6 99610 82
2005-11-28 10:23 51°32.023 2°26.302 -999 320 5.9 99590 83
2005-11-28 10:24 51°32.227 2°26.489 -999 319 6 99610 82
2005-11-28 10:25 51°32.434 2°26.675 -999 228 5.9 99620 81
2005-11-28 10:26 51°32.636 2°26.866 -999 311 5.9 99630 81
2005-11-28 10:27 51°32.84 2°27.06 -999 318 5.9 99620 80
2005-11-28 10:28 51°33.045 2°27.261 -999 310 5.9 99630 80
2005-11-28 10:29 51°33.241 2°27.457 -999 316 6 99610 81
2005-11-28 10:30 51°33.446 2°27.656 -999 321 6 99620 81
2005-11-28 10:31 51°33.643 2°27.847 -999 316 5.9 99620 80
2005-11-28 10:32 51°33.845 2°28.043 -999 229 5.9 99620 81
2005-11-28 10:33 51°34.045 2°28.24 -999 316 6 99600 81
2005-11-28 10:34 51°34.25 2°28.441 -999 226 5.9 99610 80
2005-11-28 10:35 51°34.441 2°28.631 -999 311 5.8 99620 80
2005-11-28 10:36 51°34.652 2°28.834 -999 322 5.8 99620 80
2005-11-28 10:37 51°34.853 2°29.028 -999 311 5.9 99620 80
2005-11-28 10:38 51°35.052 2°29.219 -999 317 5.9 99610 80
2005-11-28 10:39 51°35.251 2°29.415 -999 319 5.9 99620 80
2005-11-28 10:40 51°35.45 2°29.613 -999 313 5.9 99600 80
2005-11-28 10:41 51°35.661 2°29.814 -999 230 5.9 99620 81
2005-11-28 10:42 51°35.854 2°30.003 -999 327 6 99590 81
2005-11-28 10:43 51°36.052 2°30.198 -999 330 5.9 99610 81
2005-11-28 10:44 51°36.252 2°30.396 -999 315 5.8 99610 81
2005-11-28 10:45 51°36.46 2°30.594 -999 312 5.8 99590 81
2005-11-28 10:46 51°36.662 2°30.788 -999 311 5.8 99590 82
2005-11-28 10:47 51°36.857 2°30.979 -999 309 5.8 99590 82
2005-11-28 10:48 51°37.063 2°31.174 -999 314 5.9 99600 83
2005-11-28 10:49 51°37.257 2°31.365 -999 313 5.9 99580 83
2005-11-28 10:50 51°37.457 2°31.56 -999 311 5.9 99590 82
2005-11-28 10:51 51°37.658 2°31.756 -999 307 5.9 99600 83
2005-11-28 10:52 51°37.86 2°31.95 -999 313 5.9 99600 82
2005-11-28 10:53 51°38.071 2°32.153 -999 313 5.9 99620 82
2005-11-28 10:54 51°38.266 2°32.342 -999 310 5.9 99600 82
2005-11-28 10:55 51°38.47 2°32.542 -999 317 5.9 99580 82
2005-11-28 10:56 51°38.666 2°32.729 -999 310 5.9 99590 81
2005-11-28 10:57 51°38.875 2°32.932 -999 312 5.9 99570 81
2005-11-28 10:58 51°39.075 2°33.132 -999 300 5.9 99580 80
2005-11-28 10:59 51°39.281 2°33.327 -999 310 5.9 99590 80
2005-11-28 11:00 51°39.475 2°33.519 -999 313 6 99580 80
2005-11-28 11:01 51°39.686 2°33.723 -999 313 6 99590 80
2005-11-28 11:02 51°39.89 2°33.918 -999 311 5.9 99590 80
2005-11-28 11:03 51°40.088 2°34.107 -999 228 5.9 99590 80
2005-11-28 11:04 51°40.298 2°34.313 -999 321 5.9 99580 79
2005-11-28 11:05 51°40.502 2°34.509 -999 43 5.9 99600 80
2005-11-28 11:06 51°40.707 2°34.708 -999 315 6 99600 81
2005-11-28 11:07 51°40.904 2°34.898 -999 316 5.9 99590 80
2005-11-28 11:08 51°41.113 2°35.104 -999 311 6 99570 81
2005-11-28 11:09 51°41.313 2°35.313 -999 308 5.9 99550 80
2005-11-28 11:10 51°41.427 2°35.637 -999 285 5.9 99580 80
2005-11-28 11:11 51°41.386 2°35.989 -999 212 5.9 99590 79
2005-11-28 11:12 51°41.297 2°36.305 -999 231 5.9 99590 79
2005-11-28 11:13 51°41.199 2°36.631 -999 219 5.7 99600 77
2005-11-28 11:14 51°41.101 2°36.953 -999 224 5.7 99580 77
2005-11-28 11:15 51°41.004 2°37.272 -999 242 5.8 99590 77
2005-11-28 11:16 51°40.906 2°37.586 -999 226 5.9 99590 78
2005-11-28 11:17 51°40.803 2°37.911 -999 215 5.9 99590 77
2005-11-28 11:18 51°40.704 2°38.225 -999 231 5.8 99590 76
2005-11-28 11:19 51°40.611 2°38.529 -999 210 5.7 99590 76
2005-11-28 11:20 51°40.507 2°38.854 -999 194 5.8 99600 75
2005-11-28 11:21 51°40.413 2°39.152 -999 204 5.8 99590 75
2005-11-28 11:22 51°40.308 2°39.469 -999 175 5.9 99580 75
2005-11-28 11:23 51°40.202 2°39.773 -999 189 5.9 99600 74
2005-11-28 11:24 51°40.088 2°40.068 -999 148 5.9 99590 74
2005-11-28 11:25 51°39.973 2°40.364 -999 116 6 99590 74
2005-11-28 11:26 51°39.86 2°40.667 -999 150 6.1 99600 75
2005-11-28 11:27 51°39.743 2°40.959 -999 161 6.1 99600 75
2005-11-28 11:28 51°39.618 2°41.237 -999 126 6.2 99590 75
2005-11-28 11:29 51°39.487 2°41.513 -999 133 6.2 99600 75
2005-11-28 11:30 51°39.343 2°41.763 -999 119 6.3 99610 76
2005-11-28 11:31 51°39.189 2°41.976 -999 106 6.3 99600 77
2005-11-28 11:32 51°39.019 2°42.171 -999 98 6.3 99590 77
2005-11-28 11:33 51°38.821 2°42.26 -999 89 6.3 99610 77
2005-11-28 11:34 51°38.627 2°42.336 -999 75 6.2 99630 76
2005-11-28 11:35 51°38.433 2°42.412 -999 89 6.2 99620 74
2005-11-28 11:36 51°38.239 2°42.486 -999 70 6.3 99610 75
2005-11-28 11:37 51°38.045 2°42.554 -999 81 6.3 99610 75
2005-11-28 11:38 51°37.851 2°42.624 -999 82 6.3 99620 78
2005-11-28 11:39 51°37.666 2°42.706 -999 84 6.3 99620 78
2005-11-28 11:40 51°37.467 2°42.76 -999 80 6.3 99610 78
2005-11-28 11:41 51°37.285 2°42.72 -999 55 6.2 99610 78
2005-11-28 11:42 51°37.202 2°42.458 -999 19 6.1 99600 77
2005-11-28 11:43 51°37.227 2°42.145 -999 12 6.2 99610 76
2005-11-28 11:44 51°37.256 2°41.831 -999 17 6.2 99620 76
2005-11-28 11:45 51°37.284 2°41.52 -999 18 6.2 99610 76
2005-11-28 11:46 51°37.315 2°41.224 -999 6 6.2 99620 75
2005-11-28 11:47 51°37.349 2°40.909 -999 17 6.2 99630 77
2005-11-28 11:48 51°37.375 2°40.611 -999 13 6.1 99620 76
2005-11-28 11:49 51°37.404 2°40.287 -999 20 6.1 99610 76
2005-11-28 11:50 51°37.431 2°39.975 -999 18 6.2 99610 78
2005-11-28 11:51 51°37.449 2°39.659 -999 22 6.2 99620 78
2005-11-28 11:52 51°37.458 2°39.344 -999 15 6.1 99610 78
2005-11-28 11:53 51°37.461 2°39.04 -999 25 6.1 99620 78
2005-11-28 11:54 51°37.467 2°38.715 -999 24 6 99610 78
2005-11-28 11:55 51°37.475 2°38.411 -999 22 6 99630 76
2005-11-28 11:56 51°37.482 2°38.085 -999 22 6 99640 76
2005-11-28 11:57 51°37.49 2°37.766 -999 17 5.9 99630 75
2005-11-28 11:58 51°37.497 2°37.451 -999 10 5.9 99630 74
2005-11-28 11:59 51°37.501 2°37.137 -999 17 5.9 99630 73
2005-11-28 12:00 51°37.508 2°36.818 -999 18 5.9 99630 74
2005-11-28 12:01 51°37.514 2°36.5 -999 29 6 99620 75
2005-11-28 12:02 51°37.519 2°36.183 -999 27 5.9 99630 75
2005-11-28 12:03 51°37.522 2°35.866 -999 35 5.9 99630 75
2005-11-28 12:04 51°37.525 2°35.55 -999 31 5.9 99620 77
2005-11-28 12:05 51°37.528 2°35.233 -999 34 5.9 99630 78
2005-11-28 12:06 51°37.533 2°34.916 -999 23 5.8 99640 78
2005-11-28 12:07 51°37.539 2°34.602 -999 22 5.8 99630 79
2005-11-28 12:08 51°37.493 2°34.331 -999 50 5.9 99640 80
2005-11-28 12:09 51°37.361 2°34.125 -999 42 5.8 99640 79
2005-11-28 12:10 51°37.225 2°33.92 -999 49 5.8 99640 79
2005-11-28 12:11 51°37.063 2°33.803 -999 56 5.7 99640 79
2005-11-28 12:12 51°36.882 2°33.688 -999 69 5.8 99640 79
2005-11-28 12:13 51°36.714 2°33.576 -999 61 5.7 99650 78
2005-11-28 12:14 51°36.532 2°33.457 -999 73 5.8 99630 79
2005-11-28 12:15 51°36.358 2°33.343 -999 61 5.8 99650 79
2005-11-28 12:16 51°36.183 2°33.227 -999 61 5.8 99650 78
2005-11-28 12:17 51°13.206 2°52.909 -999 359 3 99560 97
2005-11-28 12:17 51°13.206 2°52.909 -999 3 3 99560 97
2005-11-28 12:18 51°35.773 2°32.955 -999 78 5.7 99650 78
2005-11-28 12:19 51°35.592 2°32.87 -999 79 5.8 99650 79
2005-11-28 12:20 51°35.41 2°32.791 -999 80 5.8 99640 78
2005-11-28 12:21 51°35.227 2°32.704 -999 77 5.8 99650 79
2005-11-28 12:22 51°35.045 2°32.629 -999 77 5.8 99650 79
2005-11-28 12:23 51°34.862 2°32.542 -999 83 5.7 99650 79
2005-11-28 12:24 51°34.677 2°32.454 -999 74 5.7 99650 79
2005-11-28 12:25 51°34.498 2°32.368 -999 68 5.8 99650 81
2005-11-28 12:26 51°34.305 2°32.278 -999 69 5.7 99630 80
2005-11-28 12:27 51°34.12 2°32.21 -999 71 5.8 99640 80
2005-11-28 12:28 51°33.92 2°32.145 -999 79 5.8 99630 79
2005-11-28 12:29 51°33.731 2°32.094 -999 72 5.7 99640 79
2005-11-28 12:30 51°33.527 2°32.052 -999 85 5.8 99630 79
2005-11-28 12:31 51°33.339 2°32.009 -999 77 5.8 99650 78
2005-11-28 12:32 51°33.136 2°31.961 -999 89 5.9 99640 79
2005-11-28 12:33 51°32.939 2°31.912 -999 67 5.9 99660 80
2005-11-28 12:34 51°32.746 2°31.864 -999 73 5.9 99650 79
2005-11-28 12:35 51°32.551 2°31.816 -999 59 5.9 99650 78
2005-11-28 12:36 51°32.356 2°31.78 -999 76 5.9 99660 77
2005-11-28 12:37 51°32.16 2°31.781 -999 71 6 99660 78
2005-11-28 12:38 51°31.962 2°31.813 -999 74 6 99660 79
2005-11-28 12:39 51°31.764 2°31.85 -999 85 5.8 99680 78
2005-11-28 12:40 51°31.573 2°31.912 -999 84 5.9 99670 80
2005-11-28 12:41 51°31.371 2°31.977 -999 84 6.1 99660 81
2005-11-28 12:42 51°31.177 2°32.043 -999 83 6.1 99660 81
2005-11-28 12:43 51°30.996 2°32.176 -999 102 6.1 99660 81
2005-11-28 12:44 51°30.823 2°32.35 -999 92 6.2 99660 81
2005-11-28 12:45 51°30.646 2°32.513 -999 90 6.1 99670 80
2005-11-28 12:46 51°30.468 2°32.675 -999 95 6.1 99660 80
2005-11-28 12:47 51°30.294 2°32.834 -999 79 6 99660 79
2005-11-28 12:48 51°30.108 2°32.994 -999 83 6 99670 78
2005-11-28 12:49 51°29.933 2°33.149 -999 94 6 99670 78
2005-11-28 12:50 51°29.747 2°33.323 -999 113 6 99670 78
2005-11-28 12:51 51°29.654 2°33.628 -999 231 6.2 99680 79
2005-11-28 12:52 51°29.62 2°33.981 -999 146 6.2 99670 78
2005-11-28 12:53 51°29.589 2°34.333 -999 245 6.2 99670 78
2005-11-28 12:54 51°29.558 2°34.682 -999 204 6.2 99670 77
2005-11-28 12:55 51°29.53 2°35.032 -999 62 6.2 99680 78
2005-11-28 12:56 51°29.509 2°35.387 -999 259 6.3 99660 78
2005-11-28 12:57 51°29.498 2°35.743 -999 248 6.4 99670 78
2005-11-28 12:58 51°29.5 2°36.1 -999 250 6.3 99660 78
2005-11-28 12:59 51°29.502 2°36.456 -999 260 6.2 99670 77
2005-11-28 13:00 51°29.501 2°36.814 -999 205 6.2 99650 77
2005-11-28 13:01 51°29.498 2°37.171 -999 220 6.1 99670 76
2005-11-28 13:02 51°29.423 2°37.473 -999 102 6.1 99670 76
2005-11-28 13:03 51°29.239 2°37.62 -999 99 6.2 99650 78
2005-11-28 13:04 51°29.051 2°37.756 -999 81 6.2 99650 77
2005-11-28 13:05 51°28.857 2°37.882 -999 84 6.2 99650 77
2005-11-28 13:06 51°28.669 2°38.02 -999 89 6.3 99640 78
2005-11-28 13:07 51°28.478 2°38.151 -999 84 6.4 99650 79
2005-11-28 13:08 51°28.29 2°38.284 -999 100 6.3 99650 77
2005-11-28 13:09 51°28.102 2°38.415 -999 81 6.3 99640 77
2005-11-28 13:10 51°27.914 2°38.543 -999 96 6.2 99660 76
2005-11-28 13:11 51°27.72 2°38.649 -999 85 6.3 99650 76
2005-11-28 13:12 51°27.527 2°38.758 -999 83 6.3 99650 75
2005-11-28 13:13 51°27.333 2°38.868 -999 84 6.3 99650 75
2005-11-28 13:14 51°27.14 2°38.974 -999 98 6.3 99660 75
2005-11-28 13:15 51°26.947 2°39.08 -999 88 6.4 99650 76
2005-11-28 13:16 51°26.757 2°39.19 -999 96 6.4 99650 75
2005-11-28 13:17 51°26.566 2°39.3 -999 83 6.3 99660 73
2005-11-28 13:18 51°26.374 2°39.411 -999 81 6.3 99650 73
2005-11-28 13:19 51°26.179 2°39.515 -999 96 6.4 99670 73
2005-11-28 13:20 51°25.983 2°39.61 -999 83 6.4 99660 73
2005-11-28 13:21 51°25.784 2°39.696 -999 88 6.4 99660 74
2005-11-28 13:22 51°25.585 2°39.78 -999 92 6.4 99660 73
2005-11-28 13:23 51°25.383 2°39.865 -999 89 6.4 99680 72
2005-11-28 13:24 51°25.183 2°39.949 -999 98 6.4 99660 73
2005-11-28 13:25 51°24.984 2°40.026 -999 87 6.5 99670 74
2005-11-28 13:26 51°24.786 2°40.112 -999 84 6.5 99670 73
2005-11-28 13:27 51°24.586 2°40.194 -999 98 6.5 99660 74
2005-11-28 13:28 51°24.389 2°40.278 -999 86 6.6 99650 74
2005-11-28 13:29 51°24.191 2°40.358 -999 95 6.4 99660 74
2005-11-28 13:30 51°23.988 2°40.428 -999 88 6.4 99670 74
2005-11-28 13:31 51°23.784 2°40.484 -999 95 6.4 99670 74
2005-11-28 13:32 51°23.58 2°40.538 -999 97 6.4 99680 74
2005-11-28 13:33 51°23.377 2°40.587 -999 89 6.4 99670 74
2005-11-28 13:34 51°23.172 2°40.578 -999 84 6.4 99670 76
2005-11-28 13:35 51°22.967 2°40.572 -999 84 6.3 99660 74
2005-11-28 13:36 51°22.759 2°40.561 -999 90 6.4 99670 76
2005-11-28 13:37 51°22.553 2°40.553 -999 85 6.4 99670 76
2005-11-28 13:38 51°22.347 2°40.544 -999 81 6.5 99670 77
2005-11-28 13:39 51°22.14 2°40.533 -999 93 6.4 99660 75
2005-11-28 13:40 51°21.932 2°40.532 -999 80 6.4 99690 75
2005-11-28 13:41 51°21.728 2°40.569 -999 88 6.4 99670 75
2005-11-28 13:42 51°21.524 2°40.628 -999 93 6.4 99670 74
2005-11-28 13:43 51°21.321 2°40.688 -999 91 6.4 99670 73
2005-11-28 13:44 51°21.117 2°40.745 -999 92 6.3 99690 73
2005-11-28 13:45 51°20.936 2°40.884 -999 103 6.4 99690 73
2005-11-28 13:46 51°20.791 2°41.133 -999 135 6.4 99690 72
2005-11-28 13:47 51°20.679 2°41.424 -999 135 6.5 99700 73
2005-11-28 13:48 51°20.566 2°41.707 -999 146 6.5 99700 74
2005-11-28 13:49 51°20.451 2°41.991 -999 226 6.6 99690 73
2005-11-28 13:50 51°20.341 2°42.281 -999 140 6.6 99690 73
2005-11-28 13:51 51°20.231 2°42.572 -999 159 6.6 99690 73
2005-11-28 13:52 51°20.124 2°42.866 -999 160 6.5 99700 72
2005-11-28 13:53 51°20.019 2°43.164 -999 167 6.5 99700 71
2005-11-28 13:54 51°19.916 2°43.464 -999 152 6.5 99690 71
2005-11-28 13:55 51°19.811 2°43.76 -999 99 6.4 99700 69
2005-11-28 13:56 51°19.707 2°44.054 -999 155 6.5 99700 70
2005-11-28 13:57 51°19.604 2°44.359 -999 137 6.6 99700 71
2005-11-28 13:58 51°19.5 2°44.661 -999 106 6.6 99700 70
2005-11-28 13:59 51°19.391 2°44.952 -999 107 6.6 99710 71
2005-11-28 14:00 51°19.289 2°45.239 -999 133 6.6 99710 72
2005-11-28 14:01 51°19.184 2°45.525 -999 120 6.6 99710 72
2005-11-28 14:02 51°19.076 2°45.813 -999 122 6.6 99700 71
2005-11-28 14:03 51°18.969 2°46.103 -999 121 6.5 99710 70
2005-11-28 14:04 51°18.865 2°46.398 -999 126 6.5 99710 70
2005-11-28 14:05 51°18.759 2°46.694 -999 114 6.4 99700 69
2005-11-28 14:06 51°18.654 2°46.986 -999 123 6.4 99710 68
2005-11-28 14:07 51°18.548 2°47.28 -999 106 6.4 99710 69
2005-11-28 14:08 51°18.44 2°47.563 -999 130 6.4 99710 68
2005-11-28 14:09 51°18.334 2°47.853 -999 95 6.4 99710 69
2005-11-28 14:10 51°18.231 2°48.142 -999 101 6.5 99710 70
2005-11-28 14:11 51°18.124 2°48.428 -999 107 6.5 99710 69
2005-11-28 14:12 51°18.019 2°48.712 -999 114 6.5 99720 70
2005-11-28 14:13 51°17.917 2°48.997 -999 100 6.5 99720 69
2005-11-28 14:14 51°17.831 2°49.301 -999 33 6.5 99720 71
2005-11-28 14:15 51°17.752 2°49.606 -999 93 6.5 99710 72
2005-11-28 14:16 51°17.666 2°49.909 -999 90 6.3 99720 74
2005-11-28 14:17 51°17.586 2°50.22 -999 75 6 99710 75
2005-11-28 14:18 51°17.502 2°50.526 -999 88 5.9 99700 77
2005-11-28 14:19 51°17.418 2°50.824 -999 96 5.8 99690 77
2005-11-28 14:20 51°17.334 2°51.124 -999 98 5.7 99700 78
2005-11-28 14:21 51°17.202 2°51.38 -999 66 5.7 99700 79
2005-11-28 14:22 51°17.047 2°51.6 -999 66 5.6 99700 79
2005-11-28 14:23 51°16.89 2°51.816 -999 66 5.4 99690 80
2005-11-28 14:24 51°16.73 2°52.034 -999 73 5.5 99690 81
2005-11-28 14:25 51°16.573 2°52.249 -999 69 5.4 99680 81
2005-11-28 14:26 51°16.416 2°52.464 -999 62 5.4 99690 81
2005-11-28 14:27 51°16.242 2°52.646 -999 59 5.4 99680 82
2005-11-28 14:28 51°16.063 2°52.817 -999 63 5.2 99690 81
2005-11-28 14:29 51°15.884 2°52.989 -999 62 5.1 99680 81
2005-11-28 14:30 51°15.722 2°53.147 -999 63 5 99700 81
2005-11-28 14:31 51°15.571 2°53.292 -999 66 5.1 99690 82
2005-11-28 14:32 51°15.394 2°53.462 -999 63 5 99690 81
2005-11-28 14:33 51°15.219 2°53.644 -999 63 5 99690 82
2005-11-28 14:34 51°15.056 2°53.841 -999 59 4.9 99700 81
2005-11-28 14:35 51°14.899 2°54.067 -999 69 4.9 99700 81
2005-11-28 14:36 51°14.749 2°54.3 -999 68 4.8 99700 81
2005-11-28 14:37 51°14.601 2°54.538 -999 80 4.8 99700 81
2005-11-28 14:38 51°14.478 2°54.791 -999 81 4.8 99710 81
2005-11-28 14:39 51°14.378 2°55.036 -999 79 4.8 99720 82
2005-11-28 14:40 51°14.271 2°55.257 -999 73 4.8 99730 82
2005-11-28 14:41 51°14.168 2°55.381 -999 24 4.6 99740 82
2005-11-28 14:42 51°14.07 2°55.458 -999 56 4.6 99740 82
2005-11-28 14:43 51°13.97 2°55.534 -999 38 4.5 99740 82
2005-11-28 14:44 51°13.856 2°55.62 -999 22 4.5 99740 83
2005-11-28 14:45 51°13.765 2°55.694 -999 31 4.6 99750 83
2005-11-28 14:46 51°13.705 2°55.781 -999 19 4.6 99750 83
2005-11-28 14:47 51°13.665 2°55.868 -999 53 4.6 99750 84
2005-11-28 14:48 51°13.63 2°55.935 -999 103 4.6 99750 84
2005-11-28 14:49 51°13.611 2°55.984 -999 83 4.6 99750 84
2005-11-28 14:50 51°13.61 2°56.029 -999 148 4.6 99750 84
2005-11-28 14:51 51°13.611 2°56.07 -999 128 4.6 99750 84
2005-11-28 14:52 51°13.603 2°56.095 -999 124 4.6 99750 84